sat.trackr.live / text

‹ back to catalog

STARLINK-32169

NORAD 60589 · 2024-150G

PAYLOAD ACTIVE UNKNOWN

§ Identity

Operator
Country
US
Launch date
2024-08-20
Launch site
AFETR
Launch vehicle
Mass (kg)
RCS (m²)

Purposes: comms

External: N2YO · Heavens-Above · Gunter

§ Orbital elements

Epoch: 2026-09-21T20:21:13.082976Z

Period
93.85 min
Inclination
53.1613°
Eccentricity
0.0001434
Mean motion
15.34388214 rev/d
Perigee alt
461.8 km
Apogee alt
463.7 km
Semi-major
6,840.9 km
B*
1.5223e-5
RAAN
115.2163°
Arg perigee
108.9453°
Mean anomaly
251.1705°
Rev number
11,808

§ Raw data

STARLINK-321691 60589U 24150G   26264.84806809  .00000138  00000+0  15223-4 0  99912 60589  53.1613 115.2163 0001434 108.9453 251.1705 15.34388214118088

JSON: /api/v1/satellites/60589 · /tle

For live sub-satellite position, see the globe view (requires WebGL).

§ Visibility from observer

Set your observer location to see the next 7 days of passes ≥ 10°. The values pass through the URL so the page stays shareable.

No JS? Fill the form by hand. The geolocation button needs JavaScript.